AirNav   Air Wisconsin Up To $57,000 Bonus
 
 883 users online  

5AZ4 University Medical Center Hospital Heliport
Tucson, Arizona, USA

GOING TO TUCSON?


FAA INFORMATION EFFECTIVE 26 JANUARY 2023

Location

FAA Identifier: 5AZ4
Lat/Long: 32-14-30.7400N 110-56-47.2200W
32-14.512333N 110-56.787000W
32.2418722,-110.9464500
(estimated)
Elevation: 2559 ft. / 780 m (estimated)
Variation: 12E (1995)
Time zone: UTC -7 (year round; does not observe DST)
Zip code: 85719

Heliport Operations

Heliport use: Private use, MEDICAL USE.
Activation date: 05/1998
Control tower: no
ARTCC: ALBUQUERQUE CENTER
FSS: PRESCOTT FLIGHT SERVICE STATION
Attendance: CONTINUOUS
Wind indicator: yes
Segmented circle: no
Lights: FOR PERIMETER LGTS CALL 520-694-6533 OR 520-694-7547.

Heliport Communications

WX ASOS at TUS (8 nm S): PHONE 520-295-5727
WX AWOS-3 at RYN (13 nm SW): 133.35 (520-578-0269)
WX AWOS-3 at AVQ (17 nm NW): 118.375 (520-682-4104)

Nearby radio navigation aids

VOR radial/distance  VOR name  Freq  Var
TUSr338/8.9TUCSON VORTAC116.0012E

 
NDB name  Hdg/Dist  Freq  Var  ID
RYAN048/12.533812ERYN .-. -.-- -.
ROBLES052/23.322012ERBJ .-. -... .---

Heliport Services

Runway Information

Helipad H1

Dimensions: 40 x 40 ft. / 12 x 12 m
Surface: mats
Runway edge lights: PERI
Latitude: 32-14.516333N
Longitude: 110-56.774667W
Elevation: 2559.0 ft.
Traffic pattern: leftleft

Helipad H2

Dimensions: 40 x 40 ft. / 12 x 12 m
Surface: mats
Latitude: 32-14.508167N
Longitude: 110-56.799167W
Elevation: 2559.0 ft.
Traffic pattern: leftleft

Heliport Ownership and Management from official FAA records

Ownership: Privately-owned
Owner: UNIVERSITY MEDICAL CENTER
1501 NORTH CAMPBELL AVE
TUCSON, AZ 85724
Phone 520-694-7547
Manager: SUZANNE GOTELL
1501 NORTH CAMPBELL AVE
TUCSON, AZ 85724
Phone 520-694-7540

Additional Remarks

ROOFTOP HELIPAD.
FOR CD CTC TUCSON APCH AT 520-829-6121.

Instrument Procedures

There are no published instrument procedures at 5AZ4.

Some nearby airports with instrument procedures:

KDMA - Davis Monthan Air Force Base (6 nm SE)
KTUS - Tucson International Airport (8 nm S)
KRYN - Ryan Field Airport (13 nm SW)
KAVQ - Marana Regional Airport (17 nm NW)
P08 - Coolidge Municipal Airport (48 nm NW)
 
Loc | Ops | Rwys | IFR | FBO | Links
Com | Nav | Svcs | Stats | Notes
Area around 5AZ4 (University Medical Center Hospital Heliport)
 
Road maps at: MapQuest Bing Google
 
Aerial photo
No photo
 
Sectional chart

 
Airport distance calculator
Flying to University Medical Center Hospital Heliport? Find the distance to fly.

From to 5AZ4

Sunrise and sunset
Times for 05-Feb-2023
 Local
(UTC-7)
 Zulu
(UTC)
Morning civil twilight06:5013:50
Sunrise07:1614:16
Sunset18:0001:00
Evening civil twilight18:2501:25

Current date and time
Zulu (UTC)  06-Feb-2023 03:34:41
Local (UTC-7)  05-Feb-2023 20:34:41
 
METAR
KDMA 
6nm SE 
060255Z AUTO 00000KT 10SM FEW230 16/M02 A3005 RMK AO2 SLP159 T01611024 52011 $
KTUS 
7nm S 
060253Z 28007KT 10SM CLR 17/M02 A3007 RMK AO2 SLP163 T01671017 51014
KRYN 
13nm SW 
060315Z AUTO 25004KT 10SM CLR 14/M03 A3005 RMK AO2
KAVQ 
17nm NW 
060315Z AUTO 18004KT 10SM 13/M02 A3004 RMK AO2 T01341016
TAF
KDMA 
6nm SE 
052205Z 0522/0704 30010G20KT 9999 SKC QNH3002INS BECMG 0604/0605 14009KT 9999 SKC QNH3004INS BECMG 0616/0617 VRB06KT 9999 FEW200 QNH3001INS BECMG 0621/0622 30010G20KT 9999 SKC QNH3001INS TX25/0623Z TN04/0613Z
KTUS 
7nm S 
051729Z 0518/0618 24005KT P6SM SKC FM052000 29010G18KT P6SM SKC FM060400 14007KT P6SM BKN200 FM061700 20005KT P6SM FEW200
NOTAMs
Click for the latest NOTAMs
NOTAMs are issued by the DoD/FAA and will open in a separate window not controlled by AirNav.

 

 
 

Would you like to see your business listed on this page?

 If your business provides an interesting product or service to pilots, flight crews, aircraft, or users of the University Medical Center Hospital Heliport, you should consider listing it here.  To start the listing process, click on the button below
 
Add a business
 

Other Pages about University Medical Center Hospital Heliport

Update a link
 
Copyright © AirNav, LLC. All rights reserved. Privacy Policy  Contact